GW4671 Weather Reports


time (UTC)temp
C
wind
direction
speed
KPH
gust
KPH
rain 1hr
cm
rain 24hr
cm
rain mn
cm
humidity
%
barometer
mb
20260502123039 24 0 0.0 1.6 0.00 2.49 2.49 94 1011.7
20260502121550 25 355 0.0 3.2 0.00 2.49 2.49 94 1011.6
20260502114541 25 89 0.0 1.6 0.00 2.49 2.49 94 1011.6
20260502113044 25 0 0.0 3.2 0.00 2.49 2.49 94 1011.6
20260502111551 25 0 0.0 3.2 0.00 2.49 2.49 94 1011.4
20260502110047 25 0 0.0 3.2 0.00 2.49 2.49 94 1011.4
20260502104550 26 0 0.0 1.6 0.00 2.49 2.49 94 1011.0
20260502103040 26 0 0.0 1.6 0.00 2.49 2.49 94 1010.9
20260502101539 26 89 0.0 1.6 0.00 2.49 2.49 93 1010.9
20260502070046 26 140 0.0 4.8 0.23 2.29 2.29 91 1010.0
20260502064544 27 0 0.0 4.8 0.05 2.11 2.11 89 1009.7
20260502063040 28 311 0.0 3.2 0.00 2.06 2.06 85 1009.8
20260502061540 27 0 0.0 3.2 0.00 2.06 2.06 87 1009.9
20260502060039 27 0 0.0 1.6 0.00 2.06 2.06 89 1010.2
20260502054546 27 0 0.0 3.2 0.00 2.06 2.06 89 1010.4
20260502053045 26 319 0.0 4.8 0.00 2.06 2.06 90 1010.3
20260502051559 26 0 1.6 4.8 0.00 2.06 2.06 89 1010.3
20260502050039 26 270 0.0 3.2 0.08 2.06 2.06 93 1010.5
20260502044539 26 310 0.0 4.8 0.25 2.06 2.06 92 1010.7
20260502043043 25 343 0.0 3.2 1.83 2.06 2.06 93 1011.0
20260502041540 25 0 0.0 4.8 2.06 2.06 2.06 93 1011.2
20260502040043 25 342 1.6 6.4 1.98 1.98 1.98 92 1011.7
20260502034546 25 341 3.2 8.0 1.75 1.80 1.75 91 1012.1
20260502033049 27 326 4.8 14.5 0.20 0.25 0.20 84 1011.9
20260502031556 30 342 1.6 6.4 0.00 0.05 0.00 78 1011.5
20260502030046 30 0 0.0 4.8 0.00 0.05 0.00 75 1011.6
20260502024551 30 0 1.6 8.0 0.00 0.08 0.00 79 1011.6
20260502023039 30 118 1.6 4.8 0.00 0.08 0.00 74 1011.9
20260502021540 30 0 0.0 8.0 0.00 0.08 0.00 76 1012.0
20260502020108 30 261 1.6 4.8 0.00 0.08 0.00 77 1012.2
20260502014539 29 267 0.0 3.2 0.00 0.08 0.00 77 1012.2
20260502013048 30 250 1.6 3.2 0.00 0.08 0.00 77 1012.2
20260502011549 29 0 0.0 3.2 0.00 0.08 0.00 78 1012.4
20260502010052 30 0 0.0 3.2 0.00 0.08 0.00 74 1012.5
20260502004543 29 0 0.0 3.2 0.00 0.08 0.00 77 1012.5
20260502003043 30 270 1.6 4.8 0.00 0.08 0.00 77 1012.2
20260502001545 28 104 3.2 6.4 0.00 0.08 0.00 77 1012.2
20260502000045 28 298 1.6 4.8 0.00 0.08 0.00 76 1012.1
20260501234550 28 288 1.6 6.4 0.00 0.08 0.00 80 1012.2
20260501233044 28 355 1.6 3.2 0.00 0.08 0.00 81 1012.2
20260501231555 28 243 0.0 3.2 0.00 0.08 0.00 81 1012.3
20260501230044 27 0 0.0 4.8 0.00 0.08 0.00 86 1012.0
20260501224545 26 167 0.0 4.8 0.00 0.10 0.00 88 1011.7
20260501223046 25 153 1.6 3.2 0.00 0.10 0.00 92 1011.6
20260501221544 24 129 0.0 3.2 0.00 0.10 0.00 94 1011.6
20260501220041 23 0 0.0 1.6 0.00 0.10 0.00 95 1011.6
20260501214555 23 0 0.0 1.6 0.00 0.10 0.00 95 1011.6
20260501213051 23 0 0.0 1.6 0.00 0.10 0.00 94 1011.3
20260501211545 23 51 0.0 3.2 0.00 0.10 0.00 94 1011.2
20260501210044 23 0 0.0 1.6 0.00 0.10 0.00 94 1011.1
20260501204552 23 0 0.0 1.6 0.00 0.10 0.00 94 1011.0
20260501203047 23 74 0.0 1.6 0.00 0.10 0.00 94 1010.9
20260501201550 23 0 0.0 1.6 0.00 0.10 0.00 94 1010.8
20260501200043 23 0 0.0 3.2 0.00 0.10 0.00 94 1010.9
20260501194549 23 144 0.0 3.2 0.00 0.10 0.00 94 1010.9
20260501193040 23 144 0.0 1.6 0.00 0.10 0.00 94 1010.9
20260501191543 23 144 0.0 3.2 0.00 0.10 0.00 94 1010.9
20260501190059 23 0 0.0 1.6 0.00 0.10 0.00 94 1010.8
20260501184546 23 0 0.0 3.2 0.00 0.10 0.00 94 1010.7
20260501183039 23 0 0.0 0.0 0.00 0.10 0.00 94 1010.8
20260501181544 23 0 0.0 3.2 0.00 0.10 0.00 94 1010.8
20260501180046 23 0 0.0 3.2 0.00 0.10 0.00 94 1011.0
20260501174600 23 0 0.0 0.0 0.00 0.10 0.00 94 1011.1
20260501173054 23 0 0.0 0.0 0.00 0.10 0.00 94 1011.3
20260501171550 23 0 0.0 1.6 0.00 0.10 0.00 94 1011.4
20260501170044 23 0 0.0 1.6 0.00 0.10 0.00 94 1011.4
20260501164542 24 0 0.0 1.6 0.00 0.10 0.00 94 1011.8
20260501163046 24 56 0.0 1.6 0.00 0.10 0.00 94 1012.3
20260501161544 23 0 0.0 3.2 0.00 0.10 0.00 94 1012.4
20260501160051 24 0 0.0 1.6 0.00 0.10 0.00 94 1012.4
20260501154545 24 0 0.0 1.6 0.00 0.10 0.10 94 1012.4
20260501153046 24 351 0.0 1.6 0.00 0.10 0.10 93 1012.4
20260501151548 24 0 0.0 3.2 0.00 0.10 0.10 93 1012.6
20260501150046 24 17 0.0 3.2 0.00 0.10 0.10 93 1012.7
20260501144542 25 0 0.0 4.8 0.00 0.15 0.10 93 1013.1
20260501143044 25 0 0.0 3.2 0.00 0.15 0.10 93 1013.4